sat.trackr.live / text

‹ back to catalog

ONEWEB-0645

NORAD 55809 · 2023-029P

PAYLOAD ACTIVE UNKNOWN

§ Identity

Operator
Country
UK
Launch date
2023-03-09
Launch site
AFETR
Launch vehicle
Mass (kg)
RCS (m²)

Purposes: comms

External: N2YO · Heavens-Above · Gunter

§ Orbital elements

Epoch: 2026-09-19T21:16:44.863968Z

Period
109.11 min
Inclination
87.9103°
Eccentricity
0.0002055
Mean motion
13.19725201 rev/d
Perigee alt
1,184.2 km
Apogee alt
1,187.3 km
Semi-major
7,563.9 km
B*
7.8635e-5
RAAN
286.1051°
Arg perigee
79.5131°
Mean anomaly
280.6233°
Rev number
17,139

§ Raw data

ONEWEB-06451 55809U 23029P   26262.88663037  .00000044  00000+0  78635-4 0  99922 55809  87.9103 286.1051 0002055  79.5131 280.6233 13.19725201171394

JSON: /api/v1/satellites/55809 · /tle

For live sub-satellite position, see the globe view (requires WebGL).

§ Visibility from observer

Set your observer location to see the next 7 days of passes ≥ 10°. The values pass through the URL so the page stays shareable.

No JS? Fill the form by hand. The geolocation button needs JavaScript.